Flight Track Log - Related Links

Times and Time Zones

All times are in EDT time to prevent confusion due to time zone crossing. See the SWA36 flight status page for this flight to view local times or setup timezone preferences in your user account.

Time Position Orientation Groundspeed Altitude Reporting Facility
EDT Latitude Longitude Course Direction KTS MPH feet Rate Location/Type
04:07PM 29.6358 -95.2697 20° North 137 158 500  Level Houston Center
04:08PM 29.6903 -95.2464 20° North 244 281 3,200 1,982 Climbing Houston Center
04:09PM 29.7217 -95.2561 345° North 240 276 4,100 2,597 Climbing Houston Center
04:09PM 29.7683 -95.2731 343° North 292 336 6,100 3,238 Climbing Houston Center
04:10PM 29.7983 -95.2803 348° North 274 315 7,500 3,738 Climbing Houston Center
04:10PM 29.8478 -95.2922 348° North 297 342 9,900 3,871 Climbing Houston Center
04:11PM 29.8803 -95.2983 351° North 296 341 11,500 2,864 Climbing Houston Center
04:12PM 29.9642 -95.3236 345° North 309 356 14,100 2,177 Climbing Houston Center
04:13PM 30.0606 -95.3492 347° North 348 400 16,000 919 Climbing Houston Center
04:14PM 30.1600 -95.3761 347° North 365 420 16,000  Level Houston Center
04:15PM 30.2789 -95.4086 347° North 365 420 16,000  Level Houston Center
04:16PM 30.3761 -95.4336 347° North 358 412 16,000 1,668 Level Houston Center
04:18PM 30.5661 -95.4833 347° North 351 404 21,200 2,406 Climbing Houston Center
04:19PM 30.6678 -95.5050 350° North 367 422 23,500 2,081 Climbing Houston Center
04:20PM 30.7883 -95.5328 349° North 393 452 25,500 1,790 Climbing Houston Center
04:21PM 30.9031 -95.5589 349° North 412 474 27,200 1,694 Climbing Houston Center
04:22PM 31.0186 -95.5853 349° North 419 482 29,000 1,355 Climbing Houston Center
04:23PM 31.1386 -95.6122 349° North 430 495 30,000 600 Climbing Houston Center
04:24PM 31.2217 -95.6303 349° North 425 489 30,000 -306 Level Fort Worth Center
04:25PM 31.3267 -95.6697 342° North 408 470 29,500 -700 Descending Fort Worth Center
04:26PM 31.4278 -95.7358 331° Northwest 403 464 28,600 -900 Descending Fort Worth Center
04:27PM 31.5350 -95.8022 332° Northwest 426 490 27,700 -900 Descending Fort Worth Center
04:28PM 31.6444 -95.8711 332° Northwest 441 507 26,800 -1,150 Descending Fort Worth Center
04:29PM 31.7517 -95.9425 330° Northwest 427 491 25,400 -1,250 Descending Fort Worth Center
04:30PM 31.8464 -95.9972 334° Northwest 396 456 24,300 -1,650 Descending Fort Worth Center
04:31PM 31.9347 -96.0572 330° Northwest 373 429 22,100 -2,300 Descending Fort Worth Center
04:32PM 32.0231 -96.1147 331° Northwest 361 415 19,700 -2,500 Descending Fort Worth Center
04:33PM 32.1092 -96.1700 331° Northwest 354 407 17,100 -2,600 Descending Fort Worth Center
04:34PM 32.1953 -96.2253 331° Northwest 345 397 14,500 -2,300 Descending Fort Worth Center
04:35PM 32.2772 -96.2733 334° Northwest 345 397 12,500 -1,786 Descending Fort Worth Center
04:37PM 32.4167 -96.3500 335° Northwest 285 328 9,500 -1,679 Descending Dallas / Fort Worth TRACON
04:38PM 32.4833 -96.4000 328° Northwest 289 333 7,800 -1,650 Descending Dallas / Fort Worth TRACON
04:39PM 32.5667 -96.4500 333° Northwest 309 356 6,200 -1,400 Descending Dallas / Fort Worth TRACON
04:40PM 32.6500 -96.4833 341° North 304 350 5,000 -600 Descending Dallas / Fort Worth TRACON
04:41PM 32.7167 -96.5333 328° Northwest 298 343 5,000  Level Dallas / Fort Worth TRACON
04:42PM 32.7667 -96.6000 312° West 274 315 5,000 -300 Level Dallas / Fort Worth TRACON
04:43PM 32.8333 -96.6500 328° Northwest 270 311 4,400 -1,000 Descending Dallas / Fort Worth TRACON
04:44PM 32.8833 -96.7167 312° West 281 323 3,000 -700 Descending Dallas / Fort Worth TRACON
04:45PM 32.9333 -96.7667 320° Northwest 230 265 3,000  Level Dallas / Fort Worth TRACON
04:45PM 32.9667 -96.8333 301° West 226 260 3,000 -222 Level Dallas / Fort Worth TRACON
04:46PM 32.9500 -96.9000 253° West 231 266 2,600 -737 Descending Dallas / Fort Worth TRACON
04:47PM 32.9000 -96.9167 196° South 168 193 1,600 -762 Descending Dallas / Fort Worth TRACON
04:48PM 32.8667 -96.8833 140° Southeast 127 146 1,000 -545 Descending Dallas / Fort Worth TRACON
04:50PM 32.8471 -96.8518 209° Southwest  Level Estimated
04:57PM 32.8471 -96.8518 209° Southwest  Level Estimated

Login

Don't have an account? Register now (free) for customized features, flight alerts, and more!